Datum;Richtung;Anzahl Messungen;Anzahl Fahrzeuge;Durchschnittsgeschwindigkeit;Hoechstgeschwindigkeit
07/11/2023 00:00;1;27;27;26.93;49.00
07/11/2023 00:30;1;25;25;27.44;42.00
07/11/2023 01:00;1;11;11;28.27;49.00
07/11/2023 01:30;1;4;4;24.25;31.00
07/11/2023 02:00;1;4;4;30.75;38.00
07/11/2023 02:30;1;5;5;29.00;52.00
07/11/2023 03:00;1;6;6;27.67;39.00
07/11/2023 03:30;1;3;3;31.67;39.00
07/11/2023 04:00;1;2;2;34.50;44.00
07/11/2023 05:00;1;7;7;36.71;59.00
07/11/2023 05:30;1;16;16;27.12;35.00
07/11/2023 06:00;1;21;21;26.29;35.00
07/11/2023 06:30;1;53;53;27.62;45.00
07/11/2023 07:00;1;35;35;26.66;46.00
07/11/2023 07:30;1;99;99;25.49;42.00
07/11/2023 08:00;1;124;124;25.38;67.00
07/11/2023 08:30;1;111;111;24.25;42.00
07/11/2023 09:00;1;103;103;25.64;47.00
07/11/2023 09:30;1;105;105;24.89;48.00
07/11/2023 10:00;1;116;116;24.51;43.00
07/11/2023 10:30;1;115;115;24.67;42.00
07/11/2023 11:00;1;109;109;22.97;42.00
07/11/2023 11:30;1;117;117;22.98;40.00
07/11/2023 12:00;1;120;120;22.75;36.00
07/11/2023 12:30;1;132;132;24.17;51.00
07/11/2023 13:00;1;135;135;24.38;45.00
07/11/2023 13:30;1;140;140;24.34;41.00
07/11/2023 14:00;1;74;74;25.12;39.00
07/11/2023 14:30;1;106;106;25.43;40.00
07/11/2023 15:00;1;103;103;26.79;49.00
07/11/2023 15:30;1;95;95;25.57;39.00
07/11/2023 16:00;1;92;92;26.24;41.00
07/11/2023 16:30;1;100;100;24.93;54.00
07/11/2023 17:00;1;88;88;25.81;39.00
07/11/2023 17:30;1;107;107;26.44;40.00
07/11/2023 18:00;1;85;85;25.89;40.00
07/11/2023 18:30;1;94;94;25.80;60.00
07/11/2023 19:00;1;75;75;27.29;42.00
07/11/2023 19:30;1;75;75;27.71;52.00
07/11/2023 20:00;1;61;61;27.62;55.00
07/11/2023 20:30;1;46;46;25.72;38.00
07/11/2023 21:00;1;52;52;29.38;52.00
07/11/2023 21:30;1;34;34;26.35;43.00
07/11/2023 22:00;1;25;25;30.12;42.00
07/11/2023 22:30;1;27;27;28.19;47.00
07/11/2023 23:00;1;17;17;29.12;45.00
07/11/2023 23:30;1;13;13;28.08;45.00
08/11/2023 00:00;1;6;6;28.50;37.00
08/11/2023 00:30;1;11;11;29.64;46.00
08/11/2023 01:00;1;3;3;39.67;57.00
08/11/2023 01:30;1;6;6;28.50;32.00
08/11/2023 02:00;1;2;2;48.00;73.00
08/11/2023 02:30;1;3;3;26.67;32.00
08/11/2023 03:00;1;1;1;42.00;42.00
08/11/2023 03:30;1;12;12;29.33;41.00
08/11/2023 04:00;1;5;5;29.00;34.00
08/11/2023 04:30;1;13;13;28.92;41.00
08/11/2023 05:00;1;16;16;31.44;51.00
08/11/2023 05:30;1;53;53;27.38;55.00
08/11/2023 06:00;1;66;66;26.00;34.00
08/11/2023 06:30;1;116;116;25.04;40.00
08/11/2023 07:00;1;121;121;24.92;44.00
08/11/2023 07:30;1;146;146;23.94;39.00
08/11/2023 08:00;1;105;105;22.70;39.00
08/11/2023 08:30;1;101;101;24.20;39.00
08/11/2023 09:00;1;87;87;23.49;39.00
08/11/2023 09:30;1;98;98;22.51;38.00
08/11/2023 10:00;1;70;70;23.11;36.00
08/11/2023 10:30;1;103;103;24.56;42.00
08/11/2023 11:00;1;82;82;23.07;38.00
08/11/2023 11:30;1;80;80;22.05;36.00
08/11/2023 12:00;1;87;87;24.30;42.00
08/11/2023 12:30;1;63;63;22.84;34.00
08/11/2023 13:00;1;68;68;23.35;37.00
08/11/2023 13:30;1;99;99;24.51;38.00
08/11/2023 14:00;1;94;94;25.44;41.00
08/11/2023 14:30;1;101;101;25.87;46.00
08/11/2023 15:00;1;69;69;24.07;39.00
08/11/2023 15:30;1;76;76;24.61;36.00
08/11/2023 16:00;1;75;75;24.45;41.00
08/11/2023 16:30;1;93;93;24.70;39.00
08/11/2023 17:00;1;97;97;24.31;40.00
08/11/2023 17:30;1;97;97;24.06;40.00
08/11/2023 18:00;1;93;93;25.46;39.00
08/11/2023 18:30;1;84;84;24.85;39.00
08/11/2023 19:00;1;69;69;25.25;39.00
08/11/2023 19:30;1;52;52;27.35;42.00
08/11/2023 20:00;1;48;48;25.40;36.00
08/11/2023 20:30;1;44;44;25.52;42.00
08/11/2023 21:00;1;42;42;25.90;44.00
08/11/2023 21:30;1;31;31;27.97;44.00
08/11/2023 22:00;1;36;36;27.14;42.00
08/11/2023 22:30;1;34;34;25.53;35.00
08/11/2023 23:00;1;19;19;28.32;42.00
08/11/2023 23:30;1;18;18;30.00;40.00
09/11/2023 00:00;1;9;9;27.67;40.00
09/11/2023 00:30;1;9;9;28.33;34.00
09/11/2023 01:00;1;2;2;42.00;57.00
09/11/2023 01:30;1;4;4;27.50;40.00
09/11/2023 02:30;1;7;7;26.29;39.00
09/11/2023 03:00;1;3;3;32.00;42.00
09/11/2023 03:30;1;13;13;30.38;48.00
09/11/2023 04:00;1;3;3;34.33;39.00
09/11/2023 04:30;1;15;15;25.60;32.00
09/11/2023 05:00;1;10;10;29.40;42.00
09/11/2023 05:30;1;49;49;27.22;42.00
09/11/2023 06:00;1;56;56;26.11;41.00
09/11/2023 06:30;1;85;85;24.00;37.00
09/11/2023 07:00;1;96;96;23.99;37.00
09/11/2023 07:30;1;121;121;23.60;38.00
09/11/2023 08:00;1;133;133;24.56;40.00
09/11/2023 08:30;1;133;133;24.41;44.00
09/11/2023 09:00;1;91;91;24.99;45.00
09/11/2023 09:30;1;99;99;25.10;42.00
09/11/2023 10:00;1;85;85;24.08;41.00
09/11/2023 10:30;1;110;110;24.68;37.00
09/11/2023 11:00;1;77;77;24.97;45.00
09/11/2023 11:30;1;95;95;26.17;42.00
09/11/2023 12:00;1;76;76;25.26;39.00
09/11/2023 12:30;1;87;87;25.11;42.00
09/11/2023 13:00;1;73;73;26.07;51.00
09/11/2023 13:30;1;97;97;27.02;40.00
09/11/2023 14:00;1;93;93;24.42;43.00
09/11/2023 14:30;1;78;78;23.87;32.00
09/11/2023 15:00;1;89;89;25.30;38.00
09/11/2023 15:30;1;84;84;24.85;41.00
09/11/2023 16:00;1;96;96;25.06;42.00
09/11/2023 16:30;1;96;96;24.17;36.00
09/11/2023 17:00;1;100;100;25.81;39.00
09/11/2023 17:30;1;102;102;25.79;43.00
09/11/2023 18:00;1;83;83;25.36;36.00
09/11/2023 18:30;1;82;82;26.38;40.00
09/11/2023 19:00;1;82;82;27.26;60.00
09/11/2023 19:30;1;68;68;27.31;43.00
09/11/2023 20:00;1;62;62;25.40;42.00
09/11/2023 20:30;1;56;56;28.12;55.00
09/11/2023 21:00;1;51;51;28.43;40.00
09/11/2023 21:30;1;44;44;26.70;41.00
09/11/2023 22:00;1;27;27;26.37;34.00
09/11/2023 22:30;1;30;30;29.87;47.00
09/11/2023 23:00;1;22;22;28.59;39.00
09/11/2023 23:30;1;16;16;27.88;36.00
10/11/2023 00:00;1;5;5;33.40;58.00
10/11/2023 00:30;1;5;5;29.60;39.00
10/11/2023 01:00;1;3;3;32.00;51.00
10/11/2023 01:30;1;5;5;27.60;29.00
10/11/2023 02:00;1;1;1;30.00;30.00
10/11/2023 02:30;1;4;4;36.00;40.00
10/11/2023 03:00;1;2;2;39.50;40.00
10/11/2023 03:30;1;12;12;30.58;38.00
10/11/2023 04:00;1;2;2;31.00;38.00
10/11/2023 04:30;1;16;16;28.94;36.00
10/11/2023 05:00;1;11;11;30.09;40.00
10/11/2023 05:30;1;39;39;27.97;37.00
10/11/2023 06:00;1;58;58;26.76;47.00
10/11/2023 06:30;1;73;73;24.92;43.00
10/11/2023 07:00;1;109;109;23.50;39.00
10/11/2023 07:30;1;127;127;23.34;44.00
10/11/2023 08:00;1;93;93;25.35;45.00
10/11/2023 08:30;1;107;107;24.07;41.00
10/11/2023 09:00;1;102;102;24.90;45.00
10/11/2023 09:30;1;111;111;24.65;40.00
10/11/2023 10:00;1;94;94;25.61;45.00
10/11/2023 10:30;1;108;108;24.55;53.00
10/11/2023 11:00;1;94;94;25.22;37.00
10/11/2023 11:30;1;93;93;24.33;41.00
10/11/2023 12:00;1;70;70;25.90;43.00
10/11/2023 12:30;1;81;81;24.30;39.00
10/11/2023 13:00;1;79;79;25.87;46.00
10/11/2023 13:30;1;100;100;24.93;39.00
10/11/2023 14:00;1;94;94;26.79;44.00
10/11/2023 14:30;1;115;115;26.61;46.00
10/11/2023 15:00;1;84;84;26.00;40.00
10/11/2023 15:30;1;98;98;25.41;43.00
10/11/2023 16:00;1;87;87;25.62;43.00
10/11/2023 16:30;1;110;110;25.35;41.00
10/11/2023 17:00;1;102;102;24.90;38.00
10/11/2023 17:30;1;92;92;26.10;41.00
10/11/2023 18:00;1;92;92;24.68;45.00
10/11/2023 18:30;1;98;98;25.82;39.00
10/11/2023 19:00;1;68;68;25.97;42.00
10/11/2023 19:30;1;74;74;25.41;49.00
10/11/2023 20:00;1;47;47;26.38;45.00
10/11/2023 20:30;1;49;49;26.16;38.00
10/11/2023 21:00;1;48;48;25.54;38.00
10/11/2023 21:30;1;37;37;27.43;38.00
10/11/2023 22:00;1;22;22;28.64;42.00
10/11/2023 22:30;1;50;50;29.78;54.00
10/11/2023 23:00;1;27;27;29.07;49.00
10/11/2023 23:30;1;45;45;29.00;47.00
11/11/2023 00:00;1;8;8;32.50;48.00
11/11/2023 00:30;1;10;10;31.80;50.00
11/11/2023 01:00;1;4;4;38.75;51.00
11/11/2023 01:30;1;7;7;30.86;37.00
11/11/2023 02:00;1;4;4;38.00;59.00
11/11/2023 02:30;1;4;4;40.00;62.00
11/11/2023 03:00;1;3;3;50.00;52.00
11/11/2023 03:30;1;5;5;26.40;31.00
11/11/2023 04:00;1;1;1;29.00;29.00
11/11/2023 04:30;1;11;11;32.18;48.00
11/11/2023 05:00;1;6;6;35.33;48.00
11/11/2023 05:30;1;24;24;29.71;60.00
11/11/2023 06:00;1;9;9;27.22;32.00
11/11/2023 06:30;1;38;38;26.39;47.00
11/11/2023 07:00;1;28;28;27.57;47.00
11/11/2023 07:30;1;49;49;26.20;45.00
11/11/2023 08:00;1;59;59;25.36;39.00
11/11/2023 08:30;1;86;86;25.73;45.00
11/11/2023 09:00;1;82;82;26.35;39.00
11/11/2023 09:30;1;94;94;25.90;45.00
11/11/2023 10:00;1;74;74;25.32;41.00
11/11/2023 10:30;1;100;100;26.56;46.00
11/11/2023 11:00;1;96;96;25.50;43.00
11/11/2023 11:30;1;116;116;24.70;39.00
11/11/2023 12:00;1;96;96;25.79;39.00
11/11/2023 12:30;1;116;116;25.38;46.00
11/11/2023 13:00;1;92;92;26.93;40.00
11/11/2023 13:30;1;99;99;25.43;39.00
11/11/2023 14:00;1;89;89;27.03;39.00
11/11/2023 14:30;1;111;111;25.22;41.00
11/11/2023 15:00;1;96;96;25.54;46.00
11/11/2023 15:30;1;104;104;25.25;50.00
11/11/2023 16:00;1;82;82;26.62;47.00
11/11/2023 16:30;1;113;113;25.88;44.00
11/11/2023 17:00;1;79;79;25.27;44.00
11/11/2023 17:30;1;95;95;24.94;46.00
11/11/2023 18:00;1;79;79;25.61;40.00
11/11/2023 18:30;1;65;65;24.85;40.00
11/11/2023 19:00;1;64;64;27.83;42.00
11/11/2023 19:30;1;57;57;26.23;42.00
11/11/2023 20:00;1;52;52;27.08;42.00
11/11/2023 20:30;1;51;51;27.12;44.00
11/11/2023 21:00;1;45;45;27.67;43.00
11/11/2023 21:30;1;50;50;28.20;50.00
11/11/2023 22:00;1;48;48;29.44;40.00
11/11/2023 22:30;1;62;62;28.00;46.00
11/11/2023 23:00;1;32;32;29.84;53.00
11/11/2023 23:30;1;39;39;27.31;47.00
12/11/2023 00:00;1;13;13;30.77;40.00
12/11/2023 00:30;1;19;19;26.16;40.00
12/11/2023 01:00;1;8;8;30.88;54.00
12/11/2023 01:30;1;16;16;30.19;43.00
12/11/2023 02:00;1;11;11;39.00;64.00
12/11/2023 02:30;1;12;12;35.08;45.00
12/11/2023 03:00;1;4;4;32.25;41.00
12/11/2023 03:30;1;7;7;35.86;45.00
12/11/2023 04:30;1;3;3;24.00;29.00
12/11/2023 05:00;1;5;5;32.40;44.00
12/11/2023 05:30;1;14;14;30.64;48.00
12/11/2023 06:00;1;12;12;31.67;50.00
12/11/2023 06:30;1;12;12;27.75;44.00
12/11/2023 07:00;1;11;11;27.00;37.00
12/11/2023 07:30;1;21;21;28.52;40.00
12/11/2023 08:00;1;20;20;25.30;33.00
12/11/2023 08:30;1;45;45;26.87;44.00
12/11/2023 09:00;1;46;46;27.28;40.00
12/11/2023 09:30;1;79;79;26.44;52.00
12/11/2023 10:00;1;67;67;27.01;50.00
12/11/2023 10:30;1;80;80;25.44;41.00
12/11/2023 11:00;1;65;65;26.74;37.00
12/11/2023 11:30;1;68;68;25.46;39.00
12/11/2023 12:00;1;81;81;27.68;46.00
12/11/2023 12:30;1;93;93;27.03;40.00
12/11/2023 13:00;1;86;86;26.28;45.00
12/11/2023 13:30;1;92;92;25.73;41.00
12/11/2023 14:00;1;71;71;28.18;54.00
12/11/2023 14:30;1;94;94;25.21;41.00
12/11/2023 15:00;1;75;75;26.45;44.00
12/11/2023 15:30;1;78;78;26.45;46.00
12/11/2023 16:00;1;76;76;27.29;41.00
12/11/2023 16:30;1;89;89;25.52;38.00
12/11/2023 17:00;1;61;61;25.07;40.00
12/11/2023 17:30;1;95;95;26.63;50.00
12/11/2023 18:00;1;63;63;26.60;42.00
12/11/2023 18:30;1;70;70;26.26;41.00
12/11/2023 19:00;1;61;61;28.89;42.00
12/11/2023 19:30;1;72;72;26.43;48.00
12/11/2023 20:00;1;45;45;25.07;39.00
12/11/2023 20:30;1;68;68;26.44;39.00
12/11/2023 21:00;1;47;47;26.40;40.00
12/11/2023 21:30;1;31;31;25.68;39.00
12/11/2023 22:00;1;16;16;28.94;42.00
12/11/2023 22:30;1;29;29;31.07;44.00
12/11/2023 23:00;1;11;11;32.91;48.00
12/11/2023 23:30;1;11;11;32.55;44.00
13/11/2023 00:00;1;5;5;31.80;54.00
13/11/2023 00:30;1;1;1;26.00;26.00
13/11/2023 01:00;1;1;1;40.00;40.00
13/11/2023 01:30;1;3;3;29.33;32.00
13/11/2023 02:30;1;3;3;35.67;42.00
13/11/2023 03:30;1;7;7;24.71;29.00
13/11/2023 04:00;1;6;6;30.17;44.00
13/11/2023 04:30;1;12;12;26.00;32.00
13/11/2023 05:00;1;13;13;32.77;41.00
13/11/2023 05:30;1;45;45;26.89;35.00
13/11/2023 06:00;1;57;57;26.95;51.00
13/11/2023 06:30;1;102;102;24.93;40.00
13/11/2023 07:00;1;114;114;25.51;38.00
13/11/2023 07:30;1;138;138;23.60;43.00
13/11/2023 08:00;1;106;106;24.36;43.00
13/11/2023 08:30;1;140;140;25.04;37.00
13/11/2023 09:00;1;87;87;25.15;40.00
13/11/2023 09:30;1;120;120;23.77;40.00
13/11/2023 10:00;1;90;90;25.30;39.00
13/11/2023 10:30;1;94;94;24.11;41.00
13/11/2023 11:00;1;77;77;24.57;39.00
13/11/2023 11:30;1;90;90;25.34;40.00
13/11/2023 12:00;1;68;68;26.06;41.00
13/11/2023 12:30;1;96;96;24.86;41.00
13/11/2023 13:00;1;99;99;24.85;38.00
13/11/2023 13:30;1;114;114;25.74;44.00
13/11/2023 14:00;1;78;78;25.78;38.00
13/11/2023 14:30;1;76;76;24.79;38.00
13/11/2023 15:00;1;72;72;24.86;37.00
13/11/2023 15:30;1;77;77;26.31;50.00
13/11/2023 16:00;1;92;92;24.97;42.00
13/11/2023 16:30;1;93;93;25.18;46.00
13/11/2023 17:00;1;68;68;25.10;41.00
13/11/2023 17:30;1;85;85;25.59;38.00
13/11/2023 18:00;1;68;68;25.56;55.00
13/11/2023 18:30;1;100;100;26.20;46.00
13/11/2023 19:00;1;60;60;26.50;39.00
13/11/2023 19:30;1;79;79;25.13;39.00
13/11/2023 20:00;1;46;46;27.91;39.00
13/11/2023 20:30;1;53;53;28.60;43.00
13/11/2023 21:00;1;27;27;27.15;39.00
13/11/2023 21:30;1;36;36;25.31;35.00
13/11/2023 22:00;1;32;32;27.28;39.00
13/11/2023 22:30;1;29;29;30.97;43.00
13/11/2023 23:00;1;15;15;28.33;44.00
13/11/2023 23:30;1;23;23;30.83;42.00
14/11/2023 00:00;1;6;6;30.17;38.00
14/11/2023 00:30;1;7;7;35.57;44.00
14/11/2023 01:00;1;3;3;32.33;38.00
14/11/2023 01:30;1;3;3;28.33;31.00
14/11/2023 02:30;1;2;2;33.00;43.00
14/11/2023 03:00;1;2;2;37.00;39.00
14/11/2023 03:30;1;2;2;28.50;30.00
14/11/2023 04:00;1;2;2;31.00;33.00
14/11/2023 04:30;1;9;9;24.78;33.00
14/11/2023 05:00;1;6;6;28.33;34.00
14/11/2023 05:30;1;40;40;30.73;65.00
14/11/2023 06:00;1;44;44;26.18;39.00
14/11/2023 06:30;1;91;91;23.52;42.00
14/11/2023 07:00;1;90;90;24.38;38.00
14/11/2023 07:30;1;139;139;23.62;37.00
14/11/2023 08:00;1;116;116;24.45;50.00
14/11/2023 08:30;1;136;136;24.27;40.00
14/11/2023 09:00;1;73;73;25.37;36.00
14/11/2023 09:30;1;82;82;23.30;32.00
14/11/2023 10:00;1;103;103;24.88;37.00
14/11/2023 10:30;1;94;94;24.83;52.00
14/11/2023 11:00;1;97;97;25.62;39.00
14/11/2023 11:30;1;101;101;24.79;38.00
14/11/2023 12:00;1;76;76;26.42;42.00
14/11/2023 12:30;1;97;97;25.60;39.00
14/11/2023 13:00;1;77;77;26.01;40.00
14/11/2023 13:30;1;61;61;25.16;36.00
14/11/2023 14:00;1;49;49;27.53;48.00
14/11/2023 14:30;1;80;80;25.75;39.00
14/11/2023 15:00;1;41;41;24.54;42.00
14/11/2023 15:30;1;43;43;25.09;36.00
14/11/2023 16:00;1;46;46;26.72;38.00
14/11/2023 16:30;1;51;51;26.12;40.00
14/11/2023 17:00;1;88;88;25.82;40.00
14/11/2023 17:30;1;71;71;26.00;40.00
14/11/2023 18:00;1;94;94;25.91;42.00
14/11/2023 18:30;1;54;54;25.48;39.00
14/11/2023 19:00;1;45;45;26.31;39.00
14/11/2023 19:30;1;48;48;25.42;40.00
14/11/2023 20:00;1;41;41;28.63;43.00
14/11/2023 20:30;1;31;31;30.68;53.00
14/11/2023 21:00;1;42;42;26.86;54.00
14/11/2023 21:30;1;38;38;26.18;39.00
14/11/2023 22:00;1;33;33;26.24;38.00
14/11/2023 22:30;1;33;33;27.70;39.00
14/11/2023 23:00;1;12;12;26.83;37.00
14/11/2023 23:30;1;16;16;32.88;67.00
15/11/2023 00:00;1;15;15;30.47;45.00
15/11/2023 00:30;1;14;14;30.29;50.00
15/11/2023 01:00;1;3;3;43.33;53.00
15/11/2023 01:30;1;4;4;32.75;44.00
15/11/2023 02:00;1;1;1;29.00;29.00
15/11/2023 02:30;1;1;1;33.00;33.00
15/11/2023 03:30;1;11;11;23.82;32.00
15/11/2023 04:00;1;6;6;34.17;44.00
15/11/2023 04:30;1;10;10;25.00;31.00
15/11/2023 05:00;1;12;12;27.00;36.00
15/11/2023 05:30;1;50;50;28.10;58.00
15/11/2023 06:00;1;51;51;25.31;39.00
15/11/2023 06:30;1;103;103;24.32;40.00
15/11/2023 07:00;1;91;91;23.51;36.00
15/11/2023 07:30;1;164;164;24.43;46.00
15/11/2023 08:00;1;115;115;25.42;43.00
15/11/2023 08:30;1;122;122;23.95;38.00
15/11/2023 09:00;1;86;86;25.21;42.00
15/11/2023 09:30;1;86;86;24.27;35.00
15/11/2023 10:00;1;84;84;25.51;45.00
15/11/2023 10:30;1;108;108;24.64;46.00
15/11/2023 11:00;1;91;91;24.43;41.00
15/11/2023 11:30;1;111;111;26.38;43.00
15/11/2023 12:00;1;79;79;25.58;41.00
15/11/2023 12:30;1;86;86;26.01;42.00
15/11/2023 13:00;1;91;91;25.87;41.00
15/11/2023 13:30;1;90;90;25.48;40.00
15/11/2023 14:00;1;66;66;26.18;41.00
15/11/2023 14:30;1;104;104;25.26;40.00
15/11/2023 15:00;1;83;83;26.29;42.00
15/11/2023 15:30;1;104;104;25.47;42.00
15/11/2023 16:00;1;87;87;26.44;45.00
15/11/2023 16:30;1;102;102;24.75;39.00
15/11/2023 17:00;1;85;85;24.02;37.00
15/11/2023 17:30;1;98;98;25.16;41.00
15/11/2023 18:00;1;93;93;25.24;47.00
15/11/2023 18:30;1;101;101;25.54;45.00
15/11/2023 19:00;1;68;68;26.97;39.00
15/11/2023 19:30;1;71;71;27.28;44.00
15/11/2023 20:00;1;50;50;24.76;47.00
15/11/2023 20:30;1;43;43;25.81;43.00
15/11/2023 21:00;1;51;51;26.94;45.00
15/11/2023 21:30;1;32;32;26.81;40.00
15/11/2023 22:00;1;22;22;27.32;38.00
15/11/2023 22:30;1;39;39;27.54;41.00
15/11/2023 23:00;1;10;10;26.50;37.00
15/11/2023 23:30;1;21;21;29.48;50.00
16/11/2023 00:00;1;8;8;28.12;34.00
16/11/2023 00:30;1;9;9;27.78;39.00
16/11/2023 01:00;1;1;1;55.00;55.00
16/11/2023 01:30;1;1;1;23.00;23.00
16/11/2023 02:30;1;3;3;29.33;43.00
16/11/2023 03:00;1;2;2;39.00;46.00
16/11/2023 03:30;1;9;9;25.78;32.00
16/11/2023 04:00;1;4;4;36.00;41.00
16/11/2023 04:30;1;9;9;26.67;31.00
16/11/2023 05:00;1;11;11;29.45;41.00
16/11/2023 05:30;1;53;53;29.81;52.00
16/11/2023 06:00;1;49;49;26.94;41.00
16/11/2023 06:30;1;99;99;24.22;42.00
16/11/2023 07:00;1;101;101;24.76;37.00
16/11/2023 07:30;1;152;152;23.88;47.00
16/11/2023 08:00;1;121;121;24.74;39.00
16/11/2023 08:30;1;118;118;25.36;39.00
16/11/2023 09:00;1;107;107;24.93;39.00
16/11/2023 09:30;1;99;99;25.21;43.00
16/11/2023 10:00;1;87;87;24.46;41.00
16/11/2023 10:30;1;97;97;24.48;52.00
16/11/2023 11:00;1;99;99;26.37;40.00
16/11/2023 11:30;1;99;99;24.60;41.00
16/11/2023 12:00;1;72;72;25.72;71.00
16/11/2023 12:30;1;94;94;25.86;46.00
16/11/2023 13:00;1;71;71;26.48;53.00
16/11/2023 13:30;1;80;80;24.89;41.00
16/11/2023 14:00;1;83;83;25.13;39.00
16/11/2023 14:30;1;103;103;25.41;49.00
16/11/2023 15:00;1;74;74;25.65;38.00
16/11/2023 15:30;1;96;96;24.56;41.00
16/11/2023 16:00;1;79;79;25.70;44.00
16/11/2023 16:30;1;73;73;24.45;38.00
16/11/2023 17:00;1;59;59;26.29;39.00
16/11/2023 17:30;1;60;60;26.00;38.00
16/11/2023 18:00;1;85;85;26.60;40.00
16/11/2023 18:30;1;88;88;26.62;43.00
16/11/2023 19:00;1;59;59;26.78;39.00
16/11/2023 19:30;1;67;67;26.60;44.00
16/11/2023 20:00;1;57;57;27.89;44.00
16/11/2023 20:30;1;49;49;26.94;39.00
16/11/2023 21:00;1;29;29;29.52;41.00
16/11/2023 21:30;1;25;25;28.44;42.00
16/11/2023 22:00;1;20;20;30.05;39.00
16/11/2023 22:30;1;47;47;29.23;42.00
16/11/2023 23:00;1;18;18;32.17;42.00
16/11/2023 23:30;1;39;39;30.41;42.00
17/11/2023 00:00;1;15;15;29.67;42.00
17/11/2023 00:30;1;11;11;30.64;43.00
17/11/2023 01:00;1;3;3;35.67;50.00
17/11/2023 01:30;1;9;9;29.89;47.00
17/11/2023 02:00;1;2;2;32.00;34.00
17/11/2023 02:30;1;3;3;38.00;47.00
17/11/2023 03:00;1;1;1;35.00;35.00
17/11/2023 03:30;1;8;8;25.38;29.00
17/11/2023 04:00;1;3;3;37.33;43.00
17/11/2023 04:30;1;14;14;29.71;47.00
17/11/2023 05:00;1;18;18;29.33;42.00
17/11/2023 05:30;1;38;38;27.29;42.00
17/11/2023 06:00;1;61;61;28.61;64.00
17/11/2023 06:30;1;74;74;25.59;39.00
17/11/2023 07:00;1;98;98;24.33;38.00
17/11/2023 07:30;1;134;134;23.59;44.00
17/11/2023 08:00;1;91;91;24.49;39.00
17/11/2023 08:30;1;127;127;24.76;44.00
17/11/2023 09:00;1;90;90;24.48;36.00
17/11/2023 09:30;1;114;114;24.41;38.00
17/11/2023 10:00;1;81;81;25.22;39.00
17/11/2023 10:30;1;83;83;25.18;41.00
17/11/2023 11:00;1;78;78;24.83;40.00
17/11/2023 11:30;1;81;81;23.84;37.00
17/11/2023 12:00;1;83;83;24.02;35.00
17/11/2023 12:30;1;101;101;25.05;42.00
17/11/2023 13:00;1;87;87;26.55;39.00
17/11/2023 13:30;1;108;108;24.50;38.00
17/11/2023 14:00;1;79;79;26.73;53.00
17/11/2023 14:30;1;90;90;25.48;41.00
17/11/2023 15:00;1;88;88;26.97;45.00
17/11/2023 15:30;1;92;92;25.78;39.00
17/11/2023 16:00;1;82;82;25.24;40.00
17/11/2023 16:30;1;82;82;25.00;39.00
17/11/2023 17:00;1;107;107;26.02;45.00
17/11/2023 17:30;1;91;91;27.01;43.00
17/11/2023 18:00;1;85;85;26.34;41.00
17/11/2023 18:30;1;92;92;26.32;41.00
17/11/2023 19:00;1;58;58;26.78;51.00
17/11/2023 19:30;1;67;67;26.31;42.00
17/11/2023 20:00;1;50;50;28.84;45.00
17/11/2023 20:30;1;62;62;26.63;42.00
17/11/2023 21:00;1;38;38;24.08;35.00
17/11/2023 21:30;1;31;31;28.39;54.00
17/11/2023 22:00;1;31;31;26.87;39.00
17/11/2023 22:30;1;46;46;27.65;40.00
17/11/2023 23:00;1;31;31;28.29;44.00
17/11/2023 23:30;1;13;13;32.23;51.00
18/11/2023 00:00;1;37;37;28.92;48.00
18/11/2023 00:30;1;11;11;32.73;49.00
18/11/2023 01:00;1;15;15;26.20;38.00
18/11/2023 01:30;1;9;9;31.67;52.00
18/11/2023 02:00;1;10;10;36.30;48.00
18/11/2023 02:30;1;5;5;45.80;60.00
18/11/2023 03:00;1;5;5;32.60;39.00
18/11/2023 03:30;1;11;11;31.00;53.00
18/11/2023 04:00;1;2;2;29.50;33.00
18/11/2023 04:30;1;7;7;29.00;38.00
18/11/2023 05:00;1;9;9;32.33;44.00
18/11/2023 05:30;1;19;19;29.16;64.00
18/11/2023 06:00;1;24;24;25.88;41.00
18/11/2023 06:30;1;29;29;25.14;38.00
18/11/2023 07:00;1;34;34;26.15;44.00
18/11/2023 07:30;1;44;44;27.34;43.00
18/11/2023 08:00;1;61;61;26.70;43.00
18/11/2023 08:30;1;65;65;25.14;45.00
18/11/2023 09:00;1;75;75;26.39;49.00
18/11/2023 09:30;1;92;92;26.16;42.00
18/11/2023 10:00;1;91;91;25.07;36.00
18/11/2023 10:30;1;107;107;25.36;37.00
18/11/2023 11:00;1;97;97;26.52;39.00
18/11/2023 11:30;1;107;107;26.25;42.00
18/11/2023 12:00;1;75;75;26.97;41.00
18/11/2023 12:30;1;104;104;24.56;42.00
18/11/2023 13:00;1;88;88;26.05;41.00
18/11/2023 13:30;1;113;113;25.96;44.00
18/11/2023 14:00;1;84;84;25.96;41.00
18/11/2023 14:30;1;112;112;25.12;42.00
18/11/2023 15:00;1;90;90;25.42;42.00
18/11/2023 15:30;1;111;111;25.78;42.00
18/11/2023 16:00;1;83;83;26.98;47.00
18/11/2023 16:30;1;111;111;24.86;39.00
18/11/2023 17:00;1;98;98;25.98;38.00
18/11/2023 17:30;1;87;87;26.40;42.00
18/11/2023 18:00;1;70;70;26.16;49.00
18/11/2023 18:30;1;101;101;27.02;66.00
18/11/2023 19:00;1;55;55;25.45;42.00
18/11/2023 19:30;1;65;65;26.12;38.00
18/11/2023 20:00;1;58;58;27.19;44.00
18/11/2023 20:30;1;60;60;26.37;43.00
18/11/2023 21:00;1;42;42;25.52;38.00
18/11/2023 21:30;1;37;37;27.76;49.00
18/11/2023 22:00;1;19;19;27.63;41.00
18/11/2023 22:30;1;57;57;25.88;41.00
18/11/2023 23:00;1;24;24;30.38;43.00
18/11/2023 23:30;1;36;36;30.94;65.00
19/11/2023 00:00;1;22;22;33.77;49.00
19/11/2023 00:30;1;32;32;28.66;62.00
19/11/2023 01:00;1;11;11;36.55;59.00
19/11/2023 01:30;1;16;16;32.00;45.00
19/11/2023 02:00;1;2;2;45.00;55.00
19/11/2023 02:30;1;15;15;29.80;45.00
19/11/2023 03:00;1;3;3;24.33;29.00
19/11/2023 03:30;1;10;10;35.00;40.00
19/11/2023 04:00;1;6;6;41.67;56.00
19/11/2023 04:30;1;6;6;47.33;80.00
19/11/2023 05:00;1;3;3;36.00;48.00
19/11/2023 05:30;1;9;9;25.00;35.00
19/11/2023 06:00;1;5;5;33.60;37.00
19/11/2023 06:30;1;13;13;26.08;39.00
19/11/2023 07:00;1;5;5;25.40;39.00
19/11/2023 07:30;1;13;13;27.85;46.00
19/11/2023 08:00;1;17;17;25.35;44.00
19/11/2023 08:30;1;41;41;25.44;40.00
19/11/2023 09:00;1;39;39;26.54;38.00
19/11/2023 09:30;1;62;62;24.90;41.00
19/11/2023 10:00;1;62;62;25.55;43.00
19/11/2023 10:30;1;80;80;26.05;46.00
19/11/2023 11:00;1;56;56;27.96;46.00
19/11/2023 11:30;1;86;86;25.86;49.00
19/11/2023 12:00;1;81;81;27.57;43.00
19/11/2023 12:30;1;102;102;26.12;47.00
19/11/2023 13:00;1;74;74;27.15;53.00
19/11/2023 13:30;1;100;100;25.21;45.00
19/11/2023 14:00;1;98;98;25.02;47.00
19/11/2023 14:30;1;109;109;25.39;45.00
19/11/2023 15:00;1;95;95;27.38;41.00
19/11/2023 15:30;1;105;105;25.69;40.00
19/11/2023 16:00;1;107;107;24.36;38.00
19/11/2023 16:30;1;114;114;25.39;48.00
19/11/2023 17:00;1;106;106;24.83;42.00
19/11/2023 17:30;1;113;113;24.42;48.00
19/11/2023 18:00;1;67;67;26.45;40.00
19/11/2023 18:30;1;100;100;25.32;42.00
19/11/2023 19:00;1;66;66;28.35;58.00
19/11/2023 19:30;1;68;68;27.00;44.00
19/11/2023 20:00;1;48;48;26.29;40.00
19/11/2023 20:30;1;59;59;26.42;41.00
19/11/2023 21:00;1;43;43;26.91;42.00
19/11/2023 21:30;1;33;33;28.79;63.00
19/11/2023 22:00;1;23;23;30.09;42.00
19/11/2023 22:30;1;30;30;27.17;41.00
19/11/2023 23:00;1;11;11;35.27;54.00
19/11/2023 23:30;1;17;17;26.06;42.00
20/11/2023 00:00;1;6;6;29.33;42.00
20/11/2023 00:30;1;9;9;29.56;48.00
20/11/2023 01:00;1;3;3;36.33;50.00
20/11/2023 01:30;1;8;8;26.62;33.00
20/11/2023 02:30;1;2;2;40.50;42.00
20/11/2023 03:00;1;2;2;25.50;27.00
20/11/2023 03:30;1;12;12;30.00;39.00
20/11/2023 04:00;1;2;2;37.00;50.00
20/11/2023 04:30;1;16;16;26.12;37.00
20/11/2023 05:00;1;14;14;29.29;43.00
20/11/2023 05:30;1;50;50;27.36;53.00
20/11/2023 06:00;1;55;55;28.05;42.00
20/11/2023 06:30;1;91;91;25.15;43.00
20/11/2023 07:00;1;109;109;24.43;42.00
20/11/2023 07:30;1;107;107;23.26;41.00
20/11/2023 08:00;1;99;99;24.29;38.00
20/11/2023 08:30;1;144;144;23.06;37.00
20/11/2023 09:00;1;97;97;26.03;47.00
20/11/2023 09:30;1;101;101;24.96;41.00
20/11/2023 10:00;1;86;86;25.05;42.00
20/11/2023 10:30;1;82;82;24.32;39.00
20/11/2023 11:00;1;94;94;24.32;40.00
20/11/2023 11:30;1;95;95;26.00;39.00
20/11/2023 12:00;1;79;79;24.78;45.00
20/11/2023 12:30;1;96;96;26.28;37.00
20/11/2023 13:00;1;75;75;26.05;39.00
20/11/2023 13:30;1;87;87;24.21;38.00
20/11/2023 14:00;1;95;95;25.17;39.00
20/11/2023 14:30;1;93;93;25.27;39.00
20/11/2023 15:00;1;71;71;24.34;40.00